GFSFLT1_925_rhum_276.txt.gz
RH
60 55 52 48 50 55 60 62 58 58 58 59 59 60 63 67 71 72 71 69 65 61 58 50 54 56 59 53 49 43 42 42
49 48 44 44 48 51 57 62 60 56 54 54 56 60 64 69 74 76 78 75 69 63 54 53 48 47 52 48 50 44 38 43
43 44 43 42 44 48 54 61 57 52 49 50 54 60 65 71 76 78 75 73 66 55 53 50 45 46 46 46 49 49 44 41
41 41 44 42 42 46 50 52 51 48 52 57 59 63 67 69 68 71 69 62 52 50 50 49 46 48 49 48 51 52 51 43
38 40 43 43 44 45 46 49 48 54 53 56 59 59 59 61 64 66 66 54 46 51 54 54 49 50 51 54 54 56 52 49
37 37 41 42 46 47 48 49 50 53 51 52 54 57 61 59 64 64 59 50 43 50 53 54 51 51 53 53 56 57 56 54
33 35 39 41 46 50 51 49 48 52 56 56 56 58 56 59 60 55 49 42 42 47 51 50 51 53 55 54 54 54 56 57
33 36 38 41 47 51 52 49 51 56 58 61 66 67 63 66 60 55 47 39 40 50 50 51 52 52 54 53 53 52 55 58
34 35 38 41 46 52 52 49 51 57 62 65 68 68 65 60 52 48 43 38 45 50 51 50 51 52 51 49 52 51 55 56
33 34 37 40 45 52 53 48 51 60 63 65 65 62 58 53 55 46 41 36 35 49 50 49 49 50 50 48 50 49 51 55
33 34 39 39 44 51 54 49 51 59 63 65 66 63 61 59 51 42 44 48 44 44 44 46 47 46 48 50 51 50 49 54
34 33 37 40 45 51 55 53 54 60 64 65 63 61 59 55 47 45 46 47 43 40 42 43 42 43 47 49 52 44 53 54
33 34 36 42 48 50 58 59 60 63 65 64 64 61 58 50 43 45 47 43 43 40 41 42 43 44 48 49 50 52 53 54
34 35 38 42 46 50 59 64 63 66 66 64 66 64 54 46 44 44 48 41 40 42 42 46 47 50 50 47 47 50 54 56
33 38 40 43 47 52 58 65 64 66 65 67 67 62 49 44 44 46 44 41 40 41 44 47 50 50 48 46 50 51 57 57
32 39 41 45 49 54 57 63 64 67 62 64 63 54 44 43 44 45 41 40 41 41 44 45 48 49 46 45 41 41 51 57
31 34 39 44 48 52 57 61 65 65 58 57 50 50 44 41 43 44 43 45 46 45 44 44 46 48 46 44 49 47 41 59
27 35 37 42 46 52 55 60 63 61 56 47 42 46 45 41 43 45 43 42 41 44 45 45 46 46 50 52 52 49 44 60
29 30 37 41 47 52 56 57 62 61 49 42 40 43 44 40 42 42 39 38 41 44 44 44 46 47 48 50 50 52 54 52

GFSFLT1_925_rhum_279.txt.gz
RH
68 67 55 54 60 64 61 56 55 56 57 57 61 66 68 70 72 72 63 60 61 57 50 53 48 32 25 27 36 40 43 32
64 54 51 56 62 62 58 56 54 54 56 60 65 68 70 74 75 71 68 61 50 52 47 46 45 38 41 40 40 45 43 36
51 51 51 54 58 60 60 50 52 54 54 58 64 67 70 71 72 69 60 51 35 40 42 43 42 41 44 41 51 46 45 42
52 51 47 49 53 58 59 57 56 56 57 58 63 66 71 74 72 66 59 43 37 39 42 48 43 40 50 51 54 51 50 43
50 50 47 45 50 52 52 53 54 53 51 51 56 65 72 76 67 65 57 44 36 46 44 45 45 45 51 55 56 53 54 52
51 51 46 44 45 48 50 50 54 53 52 53 59 67 67 66 65 64 56 44 40 44 49 45 45 47 50 55 56 52 58 55
46 47 45 45 44 46 49 49 50 53 56 56 61 59 61 62 65 65 49 43 42 43 46 49 47 47 47 57 54 54 55 58
45 48 48 50 47 48 51 50 52 53 55 57 59 59 60 62 60 52 46 44 44 41 46 47 48 48 45 56 51 55 54 57
42 45 46 52 50 50 52 51 51 55 58 61 67 66 65 65 55 53 43 40 41 38 44 48 48 48 41 52 52 51 50 55
41 44 45 51 52 53 52 51 52 57 61 67 70 69 66 61 52 47 43 37 33 39 42 47 49 49 46 46 52 50 49 54
42 43 47 50 50 51 51 52 53 58 64 67 67 61 58 53 53 45 41 35 41 42 43 45 47 46 47 47 51 49 50 54
43 44 47 48 50 52 52 52 54 62 64 65 66 63 60 58 54 44 42 40 38 40 41 42 43 43 46 48 50 52 51 54
42 46 46 51 55 57 54 52 56 61 64 65 66 63 61 57 49 44 44 43 42 38 39 42 43 44 47 48 50 49 52 55
44 46 48 57 57 61 59 53 58 62 65 65 63 61 59 54 45 43 44 43 42 40 40 43 46 47 48 47 48 47 46 51
43 46 54 57 58 63 63 58 60 64 66 65 63 62 60 50 44 43 44 41 39 40 41 44 48 49 50 49 47 44 29 30
44 51 54 58 61 67 66 63 65 66 67 65 66 65 60 47 44 44 44 42 40 38 42 43 45 49 49 50 50 39 41 28
36 49 53 56 62 66 68 68 67 68 66 66 67 66 56 45 44 45 44 41 40 40 42 44 45 46 47 46 44 49 47 35
28 52 52 54 57 58 64 68 66 66 66 64 65 63 51 43 43 44 44 42 43 44 44 45 46 46 47 49 51 51 48 35
46 40 49 52 54 57 61 64 66 66 63 61 59 54 49 44 41 42 44 44 43 41 44 45 45 47 47 49 51 50 51 41

GFSFLT1_925_rhum_282.txt.gz
RH
90 85 79 70 68 68 65 63 63 61 64 67 68 70 70 66 61 51 57 60 55 45 48 40 21 12 14 23 37 33 29 46
85 81 74 71 68 64 59 58 58 58 60 65 68 70 69 66 60 57 52 43 42 40 41 35 21 21 29 33 38 35 30 34
66 64 66 66 66 61 57 55 57 54 56 60 63 67 71 66 64 56 49 31 23 27 28 29 26 29 34 37 34 40 42 33
59 62 67 66 64 59 54 49 51 54 59 66 70 72 75 73 65 56 44 30 20 26 30 30 27 32 44 48 42 39 41 44
55 58 67 65 61 56 48 52 54 56 59 65 68 72 75 70 66 58 46 38 26 27 31 31 30 37 49 53 48 48 38 44
55 56 60 58 57 58 54 57 57 61 60 59 63 67 68 70 67 59 50 43 38 34 32 33 34 40 51 53 50 49 52 51
52 52 53 52 52 54 55 57 57 58 56 56 56 62 70 74 68 59 48 46 44 39 34 37 36 38 49 55 53 49 53 54
55 54 53 53 52 51 53 54 57 55 53 55 58 64 70 67 67 62 48 45 44 40 34 39 37 37 47 54 54 52 51 55
55 54 52 54 50 47 51 54 52 54 56 60 63 64 63 65 65 63 50 44 43 40 33 38 40 40 39 54 53 52 50 55
52 53 52 54 51 48 51 52 51 52 57 62 63 63 63 64 58 53 47 43 42 34 34 37 44 44 40 50 53 50 49 53
50 51 52 55 52 49 50 51 51 53 57 61 67 67 66 64 56 48 45 43 37 34 34 38 46 46 44 42 51 51 51 53
48 48 50 55 55 55 51 52 52 53 58 65 69 71 68 62 58 52 47 42 37 36 36 38 44 44 44 44 48 52 52 54
46 46 49 57 60 60 59 55 53 54 60 68 69 68 61 57 54 51 44 43 38 35 35 38 42 43 44 45 48 51 50 52
46 47 51 56 60 62 62 59 56 59 62 68 68 65 62 60 58 53 47 41 39 38 36 37 42 44 45 46 49 48 47 33
46 49 51 53 57 62 64 65 62 64 68 68 67 66 64 61 56 50 44 42 40 40 37 38 43 47 47 47 49 48 41 34
45 47 52 55 58 64 66 69 66 66 72 69 67 65 62 60 55 48 45 43 40 38 38 40 43 46 47 49 51 51 44 43
50 49 55 62 62 66 71 72 70 70 71 69 66 64 62 60 54 47 43 43 42 39 39 40 41 43 47 48 49 45 48 47
34 54 55 61 63 66 73 71 71 71 72 70 66 65 63 62 55 48 44 44 43 41 38 40 41 43 46 47 48 49 51 48
49 51 56 58 66 72 73 72 73 74 73 70 69 68 66 63 54 46 44 45 43 41 40 41 42 45 46 48 50 52 52 50

GFSFLT1_925_rhum_285.txt.gz
RH
92 90 90 93 79 67 63 67 67 70 70 69 69 65 64 56 48 48 50 45 43 37 34 16 11 10 22 24 32 51 44 44
95 92 93 80 68 66 64 67 68 71 72 72 72 72 68 59 50 47 41 32 28 28 26 15 10 8 22 28 25 43 45 38
96 93 83 79 70 68 65 65 68 68 64 66 67 71 71 60 53 49 40 21 21 20 19 15 15 14 21 28 28 25 34 35
88 83 84 77 72 69 64 63 63 61 61 64 71 74 73 65 56 50 36 22 15 16 16 16 16 18 23 28 30 28 38 40
76 76 82 78 71 63 60 60 60 60 60 65 67 68 69 65 60 52 41 32 24 19 18 19 20 29 35 32 32 30 33 42
68 69 74 72 70 64 58 56 56 55 61 66 66 68 68 65 64 56 47 42 35 25 22 23 25 34 44 44 38 34 34 37
62 62 69 73 68 63 54 52 54 57 61 66 68 67 70 71 66 60 50 46 43 39 30 26 27 33 48 48 46 42 43 43
64 62 66 71 71 63 55 52 56 57 60 62 65 66 68 69 67 64 53 49 48 43 34 28 30 32 46 51 50 47 47 48
62 59 61 64 66 63 60 58 61 62 62 61 64 64 67 69 70 65 59 51 46 44 38 33 33 33 39 51 51 49 48 52
61 57 57 58 61 61 58 58 60 57 58 59 60 61 66 69 70 65 62 52 46 45 38 32 36 38 37 50 51 50 49 52
62 58 57 55 56 55 56 53 54 54 56 57 58 60 63 66 65 64 65 53 46 44 35 34 40 43 41 43 51 51 50 52
63 58 57 56 55 55 52 53 54 55 55 57 59 62 64 65 64 64 62 51 46 41 34 36 41 44 43 42 46 49 52 53
62 56 57 59 58 57 57 56 56 54 54 56 62 63 64 66 66 62 54 49 46 40 38 38 40 44 43 43 44 50 51 51
62 56 56 59 60 60 61 61 59 60 57 58 64 68 68 68 65 59 52 48 45 42 34 35 37 41 42 44 45 46 48 47
58 56 53 57 59 61 63 64 63 64 63 62 66 70 70 69 65 58 52 49 47 42 35 34 36 40 44 45 45 48 48 35
56 55 54 54 59 63 65 66 66 66 69 69 69 70 70 68 62 58 56 52 46 60 36 37 37 42 46 46 45 49 48 44
52 50 51 54 58 63 66 68 70 71 74 78 69 73 70 66 63 61 56 57 53 53 40 38 38 43 44 44 45 49 51 46
57 55 52 53 57 60 66 67 74 75 75 77 75 75 72 68 66 61 54 49 61 45 41 39 38 39 42 44 47 50 48 50
52 56 56 52 56 60 62 71 75 79 80 76 78 76 73 71 66 61 56 51 50 53 42 40 38 40 41 43 47 49 49 52

GFSFLT1_925_rhum_288.txt.gz
RH
94 92 92 90 86 86 72 67 67 71 70 68 64 60 55 56 52 47 41 32 26 23 13 14 16 17 27 48 51 49 42 39
94 93 94 94 99 85 67 67 72 74 73 71 68 61 57 52 48 44 36 23 19 19 13 13 14 15 27 49 46 40 37 36
100 99 99 97 92 74 67 68 72 74 70 67 65 64 64 56 52 46 29 17 15 14 12 11 14 16 19 39 40 41 44 44
95 100 100 90 77 70 67 69 70 72 70 69 70 68 65 60 52 42 29 19 16 15 12 11 13 16 19 20 25 34 32 37
91 97 99 92 72 67 66 67 68 71 71 67 65 64 63 58 53 45 35 27 21 15 13 14 13 17 21 21 23 23 29 37
94 92 91 86 70 66 67 66 67 71 70 65 65 66 61 60 58 51 42 37 31 24 19 16 13 17 22 26 25 24 26 32
85 86 87 80 76 70 68 66 65 67 68 67 65 64 65 64 64 56 49 46 41 35 27 22 20 20 27 31 30 29 29 31
80 80 79 81 80 74 68 65 64 64 65 66 67 65 65 63 64 62 56 50 47 43 37 28 25 27 36 38 36 34 34 34
74 74 74 77 77 74 70 68 64 61 61 62 66 66 67 68 66 65 62 56 50 46 41 30 27 28 39 45 45 41 38 39
71 68 70 74 76 74 70 70 63 55 57 61 64 65 68 70 67 68 67 61 53 47 44 36 30 31 36 48 48 44 44 45
69 66 68 70 71 69 69 66 56 50 55 58 59 64 63 67 68 69 71 64 56 48 46 40 33 33 35 42 48 47 46 48
68 64 64 65 66 67 67 66 62 60 59 58 62 62 62 65 66 67 71 67 61 51 47 41 33 32 37 38 44 46 48 49
69 64 63 63 63 64 64 64 64 59 54 58 58 59 59 62 66 68 70 68 64 53 46 39 37 36 40 40 40 43 48 50
74 65 65 63 62 62 62 62 58 58 58 58 61 60 60 62 66 68 69 72 67 52 46 39 38 37 42 42 41 41 46 48
78 70 64 64 63 62 62 62 60 60 61 62 64 60 61 63 67 67 67 71 63 55 46 44 48 34 40 40 44 45 46 47
75 69 66 63 66 65 64 64 64 65 67 68 59 72 71 63 69 69 69 67 56 50 61 47 56 38 37 40 45 44 46 48
66 63 62 60 62 67 67 64 66 69 70 69 72 70 76 81 75 71 68 62 54 50 55 77 66 48 36 38 44 44 48 48
66 64 60 58 59 63 65 70 70 71 76 81 80 80 76 72 80 74 70 65 57 56 64 77 79 45 37 41 45 45 47 49
58 61 56 52 53 56 58 67 70 76 80 80 80 80 74 85 77 75 72 67 61 58 70 81 74 53 39 44 44 47 49 51

GFSFLT1_925_rhum_291.txt.gz
RH
98 99 96 97 93 85 82 74 71 70 68 66 65 62 60 54 46 41 36 29 19 10 12 14 13 24 40 55 59 63 54 46
92 100 100 100 100 88 81 82 75 71 75 76 73 73 59 54 48 40 32 28 22 13 10 12 16 32 46 48 53 55 57 53
93 97 100 100 99 92 84 83 78 75 76 76 75 65 62 49 46 41 28 22 19 15 12 12 16 31 44 47 50 56 55 55
88 94 100 100 100 95 85 83 82 74 70 68 67 61 60 57 51 38 27 20 17 15 13 13 15 17 41 42 42 53 50 49
83 93 98 100 99 95 83 82 83 79 69 75 72 68 64 63 52 38 28 24 19 15 15 14 14 16 17 25 37 40 43 49
83 89 94 99 97 92 84 81 83 84 73 73 76 73 69 54 51 41 35 31 25 20 17 16 17 21 21 18 18 21 23 45
77 85 93 98 95 87 84 81 81 84 80 72 71 68 65 62 56 50 43 39 35 31 23 17 17 18 22 26 24 21 26 32
79 87 90 93 89 82 81 78 78 84 86 76 72 67 64 60 58 57 50 46 43 40 35 24 16 16 23 27 30 28 27 39
75 82 85 84 86 81 78 75 73 80 84 82 77 72 72 65 60 59 57 52 49 45 42 35 20 18 25 28 30 28 28 36
73 78 81 83 85 80 77 75 71 75 79 80 79 73 75 72 65 63 62 59 55 49 45 41 29 23 26 30 31 35 36 37
68 73 78 81 84 81 82 76 71 70 73 75 72 70 74 73 69 68 66 65 60 54 48 44 35 29 29 32 37 36 40 41
70 67 73 78 84 83 81 79 74 72 70 70 72 70 71 72 68 69 70 69 66 58 52 47 40 32 30 36 41 39 44 49
69 67 67 71 75 76 77 78 76 71 68 69 69 72 67 68 69 72 72 71 73 65 61 51 45 34 30 30 36 39 54 62
69 65 65 67 69 71 72 77 75 72 70 70 72 70 71 68 74 79 73 72 76 69 74 52 46 48 29 35 37 37 42 60
72 69 65 65 67 67 69 73 74 73 72 72 72 69 72 79 81 72 68 72 77 75 79 59 52 43 44 46 40 44 45 56
74 68 67 64 65 67 67 67 72 72 72 74 68 70 73 78 70 63 73 74 80 76 78 60 59 42 65 50 44 48 56 61
66 65 65 64 65 67 67 68 69 74 74 73 76 77 84 79 75 73 78 70 80 79 81 69 57 56 62 65 43 54 59 58
67 68 67 64 64 68 70 70 72 73 76 80 80 84 85 82 80 73 70 85 86 78 78 73 59 68 65 74 49 47 58 57
68 62 63 66 64 68 69 74 80 83 84 84 83 87 88 89 86 79 87 89 87 76 72 67 62 67 69 88 58 48 59 57

GFSFLT1_925_rhum_297.txt.gz
RH
45 55 61 64 57 73 75 78 77 77 74 66 64 65 54 53 48 45 49 44 44 37 40 48 39 39 45 47 50 50 47 42
45 59 62 67 64 71 73 77 77 75 71 66 61 57 54 51 46 56 46 44 43 41 38 48 40 41 43 56 54 52 45 42
49 61 60 65 67 74 74 75 76 73 67 63 58 53 52 49 49 54 47 46 47 41 39 42 42 50 57 57 53 46 44 45
45 59 68 68 69 74 75 73 74 72 64 62 56 53 52 51 52 54 52 48 46 38 42 40 48 49 55 58 53 47 44 46
51 58 74 73 73 75 76 72 70 74 66 58 54 53 51 49 49 48 50 48 45 48 46 48 50 45 50 56 54 48 42 44
40 55 68 78 78 79 77 73 71 72 68 57 57 52 49 47 46 46 47 49 47 47 49 49 49 44 52 51 51 55 48 40
32 44 68 81 85 82 81 76 72 73 69 62 60 56 47 43 46 49 46 49 50 49 49 51 51 44 51 51 54 56 48 43
25 36 56 78 87 90 86 78 74 72 70 66 63 59 50 47 50 51 46 48 49 53 53 53 53 51 51 49 53 48 50 45
18 27 45 68 85 92 90 80 76 71 70 68 64 61 56 51 53 50 49 49 50 53 57 57 54 54 53 52 51 50 51 53
18 24 38 57 76 91 88 81 78 72 72 70 66 65 59 57 53 53 52 51 52 56 62 62 58 56 55 56 50 54 51 58
13 19 27 51 69 89 87 87 80 72 73 72 70 67 64 59 56 58 55 57 54 60 66 65 61 60 56 56 52 54 54 56
15 16 22 32 64 84 88 90 83 79 73 76 72 68 66 62 61 61 61 63 63 62 69 68 66 63 59 59 55 49 57 53
15 21 22 31 58 71 84 91 87 84 80 80 77 70 67 65 63 63 68 68 70 66 70 71 68 61 61 61 58 49 56 55
15 24 31 38 57 70 87 92 90 85 83 80 71 70 69 66 67 66 68 71 72 73 72 71 69 64 64 64 62 55 51 54
15 22 33 41 51 66 84 89 90 87 85 70 69 70 68 68 69 69 68 72 75 80 75 74 70 67 65 67 64 44 48 52
14 16 29 38 44 53 71 81 88 88 84 77 70 72 72 68 67 69 68 71 77 81 79 78 76 71 67 66 66 44 69 49
14 15 21 35 40 47 55 65 78 85 82 77 77 77 79 72 65 66 68 70 80 83 78 83 80 76 72 71 75 56 62 57
14 16 17 28 38 44 51 59 68 78 79 78 79 76 78 79 72 66 67 72 82 86 86 86 85 80 82 80 77 66 70 67
16 17 19 23 36 42 51 57 62 69 73 75 72 73 77 79 78 73 75 86 95 93 96 94 90 93 91 84 80 76 80 74